[[{"header":{"parameterUnit":"m.s-1","parameterCategory":2,"la1":30.2991,"la2":30.254,"lo1":-89.0895,"lo2":-89.0444,"dy":0.0017,"dx":0.0017,"nx":28,"ny":28,"refTime":"2023-10-07T21:00:00:Z","depth":"0","parameterNumber":2,"parameterNumberName":"U-component_of_CURRENTS"},"data":[0,0,0,0,0,0,0,0,0,0,0,0,0,0,0,0,0,0,0,0,0,0,0,0,0,0,0,0,0,0,0,0,0,0,0,0,0,0,0,0,0,0,0,0,0,0,0,0,0,0,0,0,0,0,0,0,0,0,0.3122,0.3123,0,0.3225,0.3226,0.3228,0.3343,0.3344,0.3346,0.3347,0.3461,0.3463,0.3464,0,0,0,0,0,0,0,0,0,0,0,0,0,0.3067,0.3067,0.3122,0.3123,0.3124,0.3225,0.3226,0.3228,0.3343,0.3344,0.3346,0.3347,0.346,0.3462,0.3464,0,0,0,0,0,0,0,0,0,0,0,0,0,0.3125,0.3067,0.3122,0.3191,0.3198,0.3224,0.3227,0.3229,0.3342,0.3344,0.3346,0.3348,0.346,0.3462,0.3465,0.3439,0,0,0.3473,0.3474,0,0,0,0,0,0,0,0,0.3122,0.3128,0.318,0.3186,0.3194,0.327,0.3249,0.3298,0.3342,0.3291,0.3347,0.3349,0.3394,0.3403,0.3422,0.3444,0.3449,0.3473,0.3474,0.3476,0.3476,0,0,0,0,0,0,0,0.3118,0.3124,0.3166,0.318,0.3189,0.3231,0.3242,0.3259,0.3332,0.3295,0.3303,0.3309,0.3399,0.3419,0.3425,0.3451,0.3473,0.3475,0.3477,0.3478,0.3567,0.3568,0,0,0,0,0,0,0.3094,0.312,0.3163,0.3169,0.3159,0.323,0.3242,0.3246,0.3332,0.3346,0.3307,0.3314,0.3413,0.3422,0.343,0.3488,0.3476,0.3478,0.3479,0.3566,0.3567,0.3568,0,0,0,0,0,0,0.3092,0.3096,0.3159,0.3144,0.3155,0.3228,0.3232,0.3247,0.3273,0.334,0.3356,0.3318,0.3415,0.3426,0.3473,0.349,0.3479,0.3482,0.3565,0.3567,0.3568,0.3551,0,0,0,0,0,0,0.309,0.3095,0.3091,0.3142,0.3155,0.318,0.3231,0.3248,0.3272,0.3282,0.3354,0.3367,0.3418,0.3469,0.3475,0.3494,0.3484,0.3564,0.3566,0.3567,0.3551,0.3552,0.3553,0,0,0,0,0,0.3088,0.3083,0.309,0.3095,0.3146,0.3179,0.319,0.3251,0.327,0.3282,0.3343,0.3366,0.3484,0.3471,0.3479,0.3498,0.3564,0.3566,0.3567,0.3551,0.3552,0.3553,0,0,0,0,0,0,0.3063,0.3095,0.3104,0.311,0.3138,0.3198,0.3214,0.3238,0.3292,0.3309,0.3367,0.3385,0.3437,0.3461,0.3445,0.353,0.3529,0.3533,0.3514,0.3515,0.3516,0.3509,0.3486,0,0,0,0,0,0.3047,0.3051,0.3085,0.3089,0.3101,0.3148,0.3166,0.3204,0.3255,0.3282,0.3327,0.3386,0.3446,0.3475,0.3523,0.3552,0.3572,0.3573,0.3574,0.3575,0.3575,0.3641,0.3648,0.3574,0.3574,0.3574,0,0,0.3037,0.3054,0.3057,0.3083,0.3113,0.3137,0.3167,0.3197,0.3223,0.3281,0.333,0.3383,0.3454,0.3513,0.3537,0.3537,0.3598,0.3577,0.3577,0.3577,0.3644,0.3651,0.3658,0.3575,0.3575,0.3575,0,0,0.3026,0.3034,0.3038,0.306,0.3095,0.3126,0.3126,0.3175,0.3208,0.3246,0.3314,0.3376,0.3437,0.3512,0.3553,0.3577,0.36,0.3591,0.3591,0.3655,0.3662,0.3668,0.3666,0.3672,0.3593,0.3593,0.3593,0,0.3015,0.3023,0.3044,0.3059,0.3081,0.3115,0.3133,0.3164,0.3223,0.3258,0.3262,0.3398,0.3444,0.3546,0.3566,0.358,0.3599,0.358,0.3656,0.3663,0.367,0.3666,0.3673,0.3592,0.3592,0.3592,0.3592,0,0.3012,0.3022,0.3029,0.3058,0.3082,0.3103,0.3144,0.3172,0.3201,0.3246,0.3331,0.3399,0.349,0.3511,0.3546,0.3627,0.3616,0.3647,0.365,0.3676,0.367,0.3678,0.3591,0.3592,0.3592,0.3592,0,0,0.2982,0.3019,0.3021,0.3039,0.3085,0.3107,0.3147,0.3205,0.3249,0.3296,0.3358,0.3456,0.3497,0.3546,0.3599,0.3646,0.369,0.3661,0.3665,0.365,0.3789,0.3728,0.373,0.3743,0.3745,0.3747,0.3753,0,0.2976,0.2999,0.3023,0.3053,0.3071,0.312,0.316,0.322,0.3271,0.3334,0.3411,0.3488,0.351,0.3558,0.3612,0.3683,0.3716,0.3682,0.3773,0.3774,0.3713,0.374,0.3636,0.363,0.376,0.3761,0.3762,0,0.2965,0.2985,0.3006,0.3063,0.3077,0.31,0.3183,0.3222,0.3323,0.3374,0.3462,0.3516,0.3604,0.3607,0.3725,0.3705,0.3742,0.3776,0.3779,0.3736,0.3729,0.3634,0.3639,0.3556,0.3774,0.3773,0.3772,0,0.2932,0.2976,0.2991,0.3008,0.3074,0.31,0.3141,0.3237,0.3289,0.3396,0.3446,0.3558,0.362,0.3689,0.3752,0.375,0.3854,0.3866,0.3837,0.383,0.3766,0.375,0.3698,0.3943,0.3943,0.3943,0.3943,0,0.2913,0.2926,0.2976,0.2983,0.3022,0.3077,0.3135,0.3203,0.3303,0.3377,0.346,0.3539,0.365,0.3719,0.3759,0.3812,0.3868,0.3833,0.3843,0.3751,0.3735,0.3681,0.3651,0.3943,0.3943,0.3943,0.3943,0,0.2865,0.2895,0.2918,0.298,0.3001,0.3026,0.3116,0.3163,0.3266,0.3358,0.339,0.354,0.3641,0.3711,0.3828,0.3824,0.3767,0.3879,0.3725,0.3716,0.3587,0.356,0.337,0.3275,0.3831,0.3829,0.3828,0,0.2837,0.2844,0.29,0.2911,0.2932,0.2982,0.3019,0.3133,0.3187,0.3363,0.3398,0.3532,0.3635,0.3746,0.3777,0.3811,0.3727,0.3706,0.3689,0.3558,0.3538,0.338,0.3303,0.3579,0.3576,0.3573,0.3571,0,0.2789,0.281,0.2829,0.2854,0.288,0.2919,0.2978,0.3025,0.3165,0.3247,0.338,0.3477,0.3619,0.3637,0.3678,0.3691,0.3519,0.3654,0.3588,0.3386,0.3145,0.3065,0.3551,0.3549,0.3551,0.3553,0.3554,0.3555,0.2751,0.275,0.2775,0.2786,0.2815,0.2838,0.284,0.2921,0.2999,0.3099,0.3275,0.3362,0.3481,0.355,0.3518,0.3405,0.3389,0.3323,0.3312,0.3169,0.3039,0.3437,0.3413,0.3414,0.3415,0.3416,0.3417,0,0.269,0.2694,0.2705,0.2708,0.2693,0.2742,0.279,0.2774,0.2812,0.2958,0.3056,0.3178,0.32,0.3253,0.3228,0.3097,0.2942,0.2999,0.278,0.2734,0.3166,0.312,0.2948,0.2948,0.2948,0.2948,0.2948,0.2948,0.2661,0.2635,0.2631,0.2575,0.2574,0.2525,0.2527,0.2529,0.2595,0.2657,0.2724,0.2837,0.3014,0.3041,0.2928,0.2854,0.2633,0.2487,0.247,0.2827,0.2856,0.2884,0.2834,0.2604,0.2604,0.1929,0.1924,0.192]},{"header":{"parameterUnit":"m.s-1","parameterCategory":2,"la1":30.2991,"la2":30.254,"lo1":-89.0895,"lo2":-89.0444,"dy":0.0017,"dx":0.0017,"nx":28,"ny":28,"refTime":"2023-10-07T21:00:00:Z","depth":"0","parameterNumber":3,"parameterNumberName":"V-component_of_CURRENTS"},"data":[0,0,0,0,0,0,0,0,0,0,0,0,0,0,0,0,0,0,0,0,0,0,0,0,0,0,0,0,0,0,0,0,0,0,0,0,0,0,0,0,0,0,0,0,0,0,0,0,0,0,0,0,0,0,0,0,0,0,0.01,0.0099,0,-0.0002,-0.0003,-0.0005,-0.0098,-0.0099,-0.01,-0.01,-0.0256,-0.0259,-0.0262,0,0,0,0,0,0,0,0,0,0,0,0,0,0.0148,0.0147,0.01,0.0099,0.0098,-0.0002,-0.0003,-0.0005,-0.0098,-0.0099,-0.01,-0.0101,-0.0254,-0.0259,-0.0263,0,0,0,0,0,0,0,0,0,0,0,0,0,0.009,0.0147,0.01,0.0043,0.0038,-0.0001,-0.0003,-0.0006,-0.0098,-0.0099,-0.01,-0.0101,-0.0253,-0.0258,-0.0263,-0.0275,0,0,-0.0279,-0.0282,0,0,0,0,0,0,0,0,0.0094,0.0088,0.0052,0.0047,0.0041,-0.0034,-0.0043,-0.0097,-0.0098,-0.0052,-0.01,-0.0101,-0.0183,-0.0194,-0.0217,-0.0282,-0.0289,-0.028,-0.0283,-0.0285,-0.0287,0,0,0,0,0,0,0,0.0098,0.0091,0.0054,0.0052,0.0045,0.0001,-0.0008,-0.0054,-0.0115,-0.0056,-0.0061,-0.0065,-0.0187,-0.0211,-0.0221,-0.0291,-0.028,-0.0284,-0.0288,-0.029,-0.0387,-0.0386,0,0,0,0,0,0,0.0125,0.0096,0.0058,0.0052,0.0071,0.0002,-0.0009,-0.0013,-0.0113,-0.0128,-0.0064,-0.0068,-0.0202,-0.0215,-0.0227,-0.0237,-0.0285,-0.029,-0.0293,-0.0387,-0.0387,-0.0386,0,0,0,0,0,0,0.0126,0.0122,0.0062,0.0075,0.0065,0.0003,-0.0002,-0.0014,-0.0033,-0.0118,-0.0135,-0.0067,-0.0203,-0.0219,-0.0264,-0.0244,-0.0292,-0.0297,-0.0388,-0.0387,-0.0386,-0.0264,0,0,0,0,0,0,0.0128,0.0123,0.0128,0.0077,0.0066,0.0051,-0.0,-0.0015,-0.0031,-0.0039,-0.0126,-0.0143,-0.0205,-0.0255,-0.0269,-0.0253,-0.0301,-0.0389,-0.0388,-0.0387,-0.0269,-0.0259,-0.0251,0,0,0,0,0,0.013,0.014,0.0129,0.0124,0.0074,0.0053,0.0043,-0.0009,-0.003,-0.0031,-0.0093,-0.014,-0.0258,-0.0259,-0.0275,-0.026,-0.0389,-0.0388,-0.0387,-0.0273,-0.0261,-0.0251,0,0,0,0,0,0,0.0156,0.013,0.0117,0.0116,0.0096,0.0039,0.0033,0.0007,-0.0043,-0.0052,-0.0133,-0.0153,-0.0187,-0.0238,-0.0236,-0.0286,-0.0331,-0.0333,-0.0239,-0.0228,-0.022,-0.019,-0.0306,0,0,0,0,0,0.017,0.0173,0.0142,0.0144,0.0138,0.0093,0.0078,0.0049,0.0003,-0.002,-0.0077,-0.0141,-0.0194,-0.0221,-0.0279,-0.03,-0.0334,-0.0301,-0.0292,-0.0284,-0.0272,-0.0306,-0.0298,-0.0382,-0.0382,-0.0382,0,0,0.0181,0.0169,0.0169,0.0151,0.0128,0.0129,0.008,0.0069,0.0066,-0.0028,-0.0052,-0.0111,-0.0194,-0.0226,-0.0244,-0.0265,-0.0277,-0.0283,-0.0275,-0.0267,-0.0304,-0.0295,-0.0288,-0.0381,-0.0381,-0.0381,0,0,0.0209,0.0197,0.021,0.0201,0.0184,0.0161,0.0169,0.0128,0.0105,0.0081,0.0011,-0.0029,-0.0109,-0.016,-0.0198,-0.017,-0.0229,-0.0191,-0.012,-0.0152,-0.0145,-0.0139,-0.0157,-0.0154,-0.0184,-0.0184,-0.0184,0,0.0222,0.0235,0.0211,0.0222,0.0223,0.0186,0.0203,0.0179,0.0129,0.0122,0.0089,-0.0011,-0.0076,-0.0113,-0.0108,-0.0147,-0.0173,-0.0151,-0.0138,-0.0133,-0.0129,-0.015,-0.0148,-0.0178,-0.0179,-0.0179,-0.018,0,0.0259,0.0271,0.028,0.0287,0.0284,0.0294,0.027,0.0265,0.024,0.0215,0.0182,0.0096,0.0039,0.0013,-0.0043,-0.0047,-0.0076,-0.0121,-0.0157,-0.0113,-0.0138,-0.0138,-0.0169,-0.0171,-0.0173,-0.0175,0,0,0.029,0.0304,0.0309,0.0328,0.0321,0.0328,0.0334,0.0333,0.0349,0.0299,0.0305,0.022,0.0184,0.0139,0.007,0.0043,0.0049,-0.0018,-0.0022,-0.002,-0.001,-0.002,-0.0022,0.0005,0.0006,0.0006,-0.0032,0,0.0328,0.0371,0.0364,0.0409,0.0432,0.0409,0.0422,0.0416,0.0402,0.04,0.0328,0.03,0.0228,0.0204,0.017,0.0072,0.0051,0.0064,-0.0067,-0.007,-0.0073,-0.0021,0.0018,-0.0012,-0.0032,-0.0032,-0.0033,0,0.0371,0.0396,0.0448,0.048,0.0489,0.051,0.0538,0.0546,0.0532,0.0517,0.0488,0.0426,0.0376,0.0306,0.0194,0.0204,0.0116,0.0043,0.0039,-0.0013,-0.008,-0.0066,-0.0012,-0.0135,-0.0034,-0.0033,-0.0033,0,0.0419,0.0458,0.0507,0.0517,0.0544,0.0566,0.0582,0.0587,0.0611,0.0599,0.0609,0.0535,0.0501,0.0386,0.0239,0.0215,0.0117,0.0058,-0.003,-0.0032,-0.0045,-0.0048,-0.0113,-0.0011,-0.0011,-0.0011,-0.001,0,0.0467,0.0506,0.0537,0.0566,0.063,0.0627,0.0694,0.0696,0.0715,0.0768,0.0678,0.0694,0.0519,0.0434,0.0288,0.0145,0.0154,0.0002,-0.0036,-0.0001,0.0,-0.0147,-0.0235,-0.0012,-0.0012,-0.0011,-0.0011,0,0.0512,0.053,0.0591,0.0636,0.0657,0.0706,0.0771,0.0819,0.0823,0.0887,0.0885,0.082,0.072,0.0541,0.0361,0.0221,0.0001,0.0011,0.0075,0.0045,-0.0155,-0.0237,-0.0357,-0.0416,-0.0083,-0.0084,-0.0084,0,0.0538,0.0576,0.065,0.0695,0.0721,0.0791,0.0844,0.0873,0.0936,0.0975,0.1015,0.0937,0.0918,0.0652,0.0394,0.0156,0.0004,0.0014,-0.0029,-0.0139,-0.026,-0.0318,-0.0363,0.0004,0.0004,0.0004,0.0005,0,0.0588,0.0616,0.0668,0.0764,0.0833,0.0915,0.0998,0.1064,0.1116,0.1183,0.1255,0.1243,0.0998,0.0792,0.045,0.0262,-0.006,0.0013,-0.012,-0.0202,-0.0251,-0.0334,0.0004,0.0008,0.0007,0.0007,0.0007,0.0007,0.0627,0.0672,0.0744,0.0837,0.0921,0.1034,0.1118,0.1224,0.1352,0.1472,0.1446,0.1485,0.1165,0.0716,0.0435,-0.0022,-0.0051,-0.0155,-0.0245,-0.0292,-0.0348,0.0008,-0.0027,-0.0027,-0.0028,-0.0028,-0.0028,0,0.0671,0.0725,0.0812,0.0924,0.1026,0.1065,0.1217,0.1322,0.1499,0.1628,0.1708,0.1617,0.1206,0.0759,0.0141,-0.0198,-0.0333,-0.0389,-0.0462,-0.0498,-0.0189,-0.0183,-0.0229,-0.0228,-0.0228,-0.0228,-0.0228,-0.0228,0.0694,0.078,0.0824,0.0992,0.1079,0.1228,0.1324,0.1497,0.1635,0.183,0.1904,0.1917,0.1608,0.0496,-0.0263,-0.0458,-0.0678,-0.0731,-0.0864,-0.0653,-0.0638,-0.0623,-0.0637,-0.0777,-0.0777,-0.1105,-0.1108,-0.1111]}],[{"header":{"parameterUnit":"m.s-1","parameterCategory":2,"la1":30.2991,"la2":30.254,"lo1":-89.0895,"lo2":-89.0444,"dy":0.0017,"dx":0.0017,"nx":28,"ny":28,"refTime":"2023-10-07T21:00:00:Z","depth":"2","parameterNumber":2,"parameterNumberName":"U-component_of_CURRENTS"},"data":[0,0,0,0,0,0,0,0,0,0,0,0,0,0,0,0,0,0,0,0,0,0,0,0,0,0,0,0,0,0,0,0,0,0,0,0,0,0,0,0,0,0,0,0,0,0,0,0,0,0,0,0,0,0,0,0,0,0,0.263,0.263,0,0.2668,0.2668,0.2668,0.2688,0.2688,0.2688,0.2689,0.2734,0.2735,0.2735,0,0,0,0,0,0,0,0,0,0,0,0,0,0.2591,0.2591,0.263,0.263,0.2631,0.2668,0.2668,0.2668,0.2688,0.2688,0.2689,0.2689,0.2733,0.2735,0.2736,0,0,0,0,0,0,0,0,0,0,0,0,0,0.2613,0.2591,0.2629,0.2648,0.265,0.2668,0.2668,0.2668,0.2688,0.2688,0.2689,0.2689,0.2733,0.2734,0.2736,0.2734,0,0,0.274,0.274,0,0,0,0,0,0,0,0,0.2611,0.2614,0.2644,0.2647,0.2649,0.2677,0.2671,0.2692,0.2687,0.267,0.2689,0.2689,0.2717,0.272,0.2721,0.2736,0.2738,0.274,0.2741,0.2741,0.2742,0,0,0,0,0,0,0,0.261,0.2612,0.2641,0.2645,0.2648,0.2661,0.2664,0.2675,0.2687,0.2671,0.2674,0.2683,0.2718,0.2719,0.2722,0.2738,0.274,0.2741,0.2742,0.2742,0.2818,0.2819,0,0,0,0,0,0,0.2611,0.2611,0.264,0.2643,0.2635,0.2661,0.2664,0.2665,0.2687,0.2692,0.2683,0.2684,0.2717,0.2721,0.2724,0.2779,0.2741,0.2742,0.2743,0.2817,0.2818,0.282,0,0,0,0,0,0,0.261,0.2613,0.2639,0.2631,0.2636,0.2662,0.2661,0.2665,0.2679,0.2697,0.2701,0.2695,0.2717,0.2722,0.2758,0.2779,0.2743,0.2744,0.2815,0.2817,0.2819,0.2854,0,0,0,0,0,0,0.2608,0.2612,0.2613,0.2631,0.2636,0.2653,0.2661,0.2666,0.2686,0.2688,0.2709,0.2713,0.2718,0.2756,0.2759,0.278,0.2745,0.2814,0.2816,0.2818,0.2851,0.2857,0.2862,0,0,0,0,0,0.2606,0.2606,0.2612,0.2616,0.2636,0.2654,0.2657,0.2675,0.2686,0.269,0.2719,0.2713,0.2773,0.2758,0.2762,0.2784,0.2813,0.2816,0.2818,0.2849,0.2856,0.2862,0,0,0,0,0,0,0.2588,0.2609,0.2616,0.2622,0.2639,0.2659,0.2669,0.2681,0.2705,0.2715,0.2728,0.2735,0.2771,0.2775,0.2758,0.2813,0.2791,0.2795,0.2814,0.282,0.2825,0.2814,0.2746,0,0,0,0,0,0.2585,0.2592,0.2613,0.2619,0.2629,0.265,0.2662,0.2676,0.27,0.2711,0.2727,0.2753,0.2781,0.28,0.2815,0.2847,0.2851,0.2863,0.2869,0.2873,0.2867,0.2921,0.293,0.2829,0.2829,0.2829,0,0,0.2581,0.2594,0.2598,0.2617,0.2632,0.2649,0.2658,0.268,0.2698,0.2712,0.2742,0.2766,0.2793,0.283,0.2846,0.2839,0.29,0.2876,0.288,0.2871,0.2925,0.2935,0.2943,0.283,0.283,0.283,0,0,0.2578,0.2587,0.2593,0.261,0.264,0.2654,0.2663,0.2689,0.2704,0.2736,0.2759,0.28,0.2829,0.2861,0.288,0.2923,0.2921,0.293,0.2954,0.3007,0.3016,0.3023,0.3023,0.303,0.2939,0.2939,0.2939,0,0.2574,0.2582,0.2599,0.2614,0.2632,0.2658,0.2674,0.2693,0.2728,0.2755,0.2748,0.2826,0.2843,0.291,0.2926,0.2933,0.2949,0.2928,0.3014,0.3021,0.3029,0.3027,0.3034,0.2941,0.2941,0.2941,0.2941,0,0.2576,0.2588,0.2596,0.2623,0.2643,0.2662,0.2694,0.2719,0.2743,0.277,0.283,0.2859,0.2912,0.2925,0.2937,0.3008,0.2995,0.3009,0.2996,0.3041,0.3036,0.3043,0.2944,0.2943,0.2943,0.2942,0,0,0.2553,0.259,0.2594,0.261,0.2652,0.2668,0.2708,0.2755,0.2796,0.2826,0.2877,0.2929,0.2957,0.298,0.3008,0.3048,0.3105,0.3054,0.3056,0.3048,0.3194,0.3143,0.3145,0.3148,0.315,0.3152,0.3162,0,0.2551,0.2576,0.2599,0.2629,0.2645,0.2689,0.2726,0.2777,0.282,0.2873,0.2921,0.2975,0.2977,0.3013,0.3057,0.3098,0.313,0.3098,0.3155,0.3155,0.3102,0.3155,0.2916,0.2903,0.3169,0.3171,0.3171,0,0.2543,0.2564,0.2588,0.264,0.2653,0.2678,0.2753,0.279,0.2877,0.292,0.2988,0.3023,0.3092,0.3082,0.3166,0.3152,0.3174,0.319,0.3192,0.3136,0.3119,0.2906,0.2907,0.3184,0.3183,0.3182,0.3181,0,0.2513,0.2557,0.2575,0.2591,0.2653,0.2681,0.2721,0.2807,0.2854,0.2953,0.2999,0.3083,0.313,0.3177,0.3214,0.3204,0.3288,0.3282,0.3246,0.324,0.304,0.3015,0.3338,0.3338,0.3338,0.3338,0.3338,0,0.2494,0.251,0.2563,0.2571,0.2611,0.2664,0.2722,0.2784,0.2878,0.2941,0.3019,0.3082,0.3163,0.3218,0.3235,0.3261,0.3313,0.3249,0.3253,0.3044,0.302,0.3268,0.326,0.3339,0.3339,0.3339,0.3339,0,0.2449,0.2481,0.2505,0.2569,0.2592,0.2619,0.271,0.2751,0.2854,0.2935,0.2969,0.31,0.318,0.323,0.331,0.3288,0.3315,0.3311,0.3033,0.3006,0.3213,0.3207,0.3258,0.3256,0.3255,0.3254,0.3253,0,0.2422,0.2431,0.249,0.2503,0.2527,0.258,0.2616,0.2727,0.2774,0.294,0.2966,0.3091,0.316,0.3243,0.3237,0.3244,0.3312,0.3014,0.2958,0.3213,0.3212,0.3207,0.3203,0.2689,0.2683,0.2679,0.2675,0,0.2375,0.2399,0.2418,0.2447,0.2475,0.251,0.2569,0.2609,0.2739,0.2809,0.2915,0.2989,0.3096,0.3017,0.3045,0.3018,0.2992,0.2926,0.3283,0.2762,0.2682,0.268,0.2693,0.2636,0.264,0.2643,0.2645,0.2646,0.2339,0.2337,0.2364,0.2378,0.2407,0.242,0.2415,0.2484,0.2543,0.2618,0.277,0.2791,0.2839,0.2774,0.2692,0.2624,0.2833,0.269,0.27,0.2717,0.2665,0.259,0.2513,0.2516,0.2518,0.2521,0.2523,0,0.2278,0.228,0.2291,0.2292,0.2272,0.2327,0.2358,0.2325,0.2332,0.244,0.2502,0.2342,0.231,0.2351,0.2198,0.2199,0.215,0.2099,0.2007,0.205,0.2088,0.2,0.1673,0.167,0.1667,0.1664,0,0,0.2247,0.2217,0.2211,0.2147,0.2149,0.2089,0.208,0.2054,0.2083,0.2062,0.2057,0.2234,0.2311,0.1966,0.1923,0.177,0.1889,0.17,0.2392,0.233,0.2363,0.2451,0.2369,0,0,0,0,0]},{"header":{"parameterUnit":"m.s-1","parameterCategory":2,"la1":30.2991,"la2":30.254,"lo1":-89.0895,"lo2":-89.0444,"dy":0.0017,"dx":0.0017,"nx":28,"ny":28,"refTime":"2023-10-07T21:00:00:Z","depth":"2","parameterNumber":3,"parameterNumberName":"V-component_of_CURRENTS"},"data":[0,0,0,0,0,0,0,0,0,0,0,0,0,0,0,0,0,0,0,0,0,0,0,0,0,0,0,0,0,0,0,0,0,0,0,0,0,0,0,0,0,0,0,0,0,0,0,0,0,0,0,0,0,0,0,0,0,0,0.0267,0.0267,0,0.0208,0.0207,0.0206,0.0165,0.0165,0.0164,0.0164,0.0073,0.007,0.0068,0,0,0,0,0,0,0,0,0,0,0,0,0,0.0301,0.03,0.0268,0.0267,0.0266,0.0208,0.0207,0.0206,0.0165,0.0165,0.0164,0.0164,0.0073,0.0071,0.0068,0,0,0,0,0,0,0,0,0,0,0,0,0,0.0267,0.03,0.0268,0.024,0.0236,0.0208,0.0207,0.0206,0.0165,0.0165,0.0164,0.0164,0.0074,0.0071,0.0068,0.0053,0,0,0.0057,0.0056,0,0,0,0,0,0,0,0,0.0269,0.0266,0.0244,0.0241,0.0238,0.0194,0.0185,0.0153,0.0165,0.0191,0.0164,0.0164,0.0111,0.0105,0.0093,0.0049,0.0045,0.0057,0.0055,0.0054,0.0053,0,0,0,0,0,0,0,0.0272,0.0268,0.0243,0.0244,0.024,0.0214,0.0209,0.0179,0.0152,0.0189,0.0186,0.0181,0.0109,0.0097,0.0091,0.0043,0.0057,0.0054,0.0052,0.0051,-0.0016,-0.0016,0,0,0,0,0,0,0.0284,0.027,0.0245,0.0241,0.0254,0.0214,0.0209,0.0208,0.0153,0.0145,0.0181,0.0179,0.0102,0.0095,0.0087,0.008,0.0054,0.005,0.0048,-0.0017,-0.0016,-0.0016,0,0,0,0,0,0,0.0285,0.0282,0.0247,0.0255,0.0249,0.0214,0.0213,0.0207,0.0197,0.0148,0.0139,0.0179,0.0102,0.0092,0.0064,0.0076,0.0049,0.0046,-0.0017,-0.0016,-0.0016,0.0057,0,0,0,0,0,0,0.0286,0.0283,0.0287,0.0256,0.0249,0.024,0.0213,0.0206,0.0195,0.0192,0.0143,0.0134,0.0101,0.0069,0.0061,0.0071,0.0043,-0.0017,-0.0017,-0.0016,0.0055,0.006,0.0065,0,0,0,0,0,0.0288,0.0296,0.0288,0.0285,0.0255,0.0241,0.0235,0.0208,0.0196,0.0197,0.0162,0.0136,0.0066,0.0067,0.0057,0.0066,-0.0017,-0.0017,-0.0016,0.0052,0.0059,0.0065,0,0,0,0,0,0,0.0309,0.0291,0.0282,0.0284,0.0268,0.0234,0.0233,0.0215,0.0188,0.0184,0.0137,0.0126,0.0105,0.0074,0.0076,0.0047,0.0021,0.0019,0.0077,0.0082,0.0088,0.0117,0.004,0,0,0,0,0,0.0317,0.0321,0.0298,0.03,0.0296,0.0266,0.0257,0.0241,0.0213,0.0201,0.0168,0.0131,0.0099,0.0083,0.005,0.0034,0.0007,0.0033,0.0039,0.0043,0.0059,0.0024,0.0028,-0.0014,-0.0014,-0.0014,0,0,0.0325,0.0317,0.0318,0.0306,0.0291,0.0294,0.026,0.0253,0.0255,0.0195,0.0187,0.0148,0.0098,0.0081,0.0069,0.0057,0.004,0.0044,0.0048,0.0062,0.0025,0.0029,0.0033,-0.0014,-0.0014,-0.0014,0,0,0.0348,0.0339,0.0351,0.0344,0.0331,0.0317,0.032,0.0293,0.0281,0.0265,0.0224,0.0197,0.0147,0.012,0.0097,0.0112,0.0068,0.0096,0.0147,0.0112,0.0116,0.0119,0.0089,0.0088,0.01,0.01,0.01,0,0.0357,0.0371,0.0352,0.0362,0.0364,0.0333,0.0349,0.0333,0.0301,0.0298,0.0273,0.0211,0.0169,0.0151,0.0155,0.0126,0.0098,0.0129,0.0121,0.0123,0.0124,0.0093,0.0092,0.0104,0.0103,0.0103,0.0103,0,0.0389,0.04,0.0408,0.0416,0.0415,0.0423,0.0404,0.0401,0.0382,0.0365,0.0344,0.0285,0.0252,0.023,0.0195,0.0189,0.0162,0.0132,0.011,0.0133,0.0098,0.0095,0.0109,0.0108,0.0107,0.0106,0,0,0.0412,0.0427,0.0432,0.0451,0.0446,0.0453,0.0459,0.0461,0.0477,0.0434,0.0442,0.0384,0.0356,0.0329,0.0279,0.025,0.0232,0.0203,0.0199,0.0183,0.0157,0.0144,0.0139,0.0196,0.0196,0.0196,0.0128,0,0.0445,0.0484,0.0479,0.0521,0.0542,0.0524,0.0537,0.0534,0.0522,0.0521,0.0463,0.0448,0.0391,0.0376,0.0339,0.0259,0.0228,0.0253,0.0129,0.0126,0.0119,0.0137,0.0163,0.0106,0.0125,0.0125,0.0124,0,0.0481,0.0505,0.0552,0.0585,0.0593,0.0613,0.0641,0.0649,0.0637,0.0625,0.0599,0.055,0.0506,0.0448,0.0338,0.0355,0.027,0.0203,0.0198,0.0163,0.0108,0.0084,0.0099,0.0119,0.0119,0.012,0.012,0,0.0522,0.0559,0.0605,0.0615,0.0642,0.0664,0.068,0.0686,0.071,0.0697,0.0705,0.0637,0.0606,0.0495,0.0362,0.0346,0.0236,0.0191,0.01,0.0097,0.0086,0.0083,0.0115,0.0116,0.0116,0.0116,0.0116,0,0.0564,0.06,0.0632,0.0659,0.072,0.0718,0.0781,0.0784,0.0801,0.0848,0.0767,0.0777,0.0616,0.053,0.0395,0.025,0.0258,0.0121,0.0084,0.0111,0.0111,0.0094,0.0093,0.0113,0.0114,0.0114,0.0115,0,0.0603,0.062,0.0678,0.0722,0.0744,0.079,0.0853,0.0898,0.0901,0.0955,0.0953,0.0885,0.0777,0.0609,0.0432,0.0304,0.0156,0.0098,0.0146,0.0117,0.003,0.0033,-0.001,-0.001,-0.0011,-0.0012,-0.0012,0,0.0626,0.0661,0.0733,0.0776,0.0802,0.0869,0.092,0.0949,0.1006,0.103,0.1064,0.0975,0.0936,0.067,0.0432,0.0199,0.0159,0.0059,0.0034,0.0052,0.0019,0.0023,0.0027,0.0041,0.0041,0.0041,0.0041,0,0.0672,0.0698,0.0747,0.0839,0.0905,0.0985,0.1064,0.1123,0.1168,0.1214,0.1256,0.1223,0.0976,0.0749,0.0425,0.0266,0.0098,0.005,0.0057,0.0074,0.0095,0.0065,0.0068,0.004,0.004,0.004,0.0041,0.0041,0.0707,0.0749,0.0819,0.0906,0.0987,0.1093,0.1172,0.1259,0.1362,0.1436,0.14,0.1353,0.1087,0.0678,0.0393,0.009,0.0106,-0.0007,-0.0005,-0.0004,0.0019,0.0039,-0.0022,-0.0023,-0.0023,-0.0023,-0.0023,0,0.0749,0.0799,0.0881,0.0989,0.1083,0.1123,0.1262,0.1347,0.1479,0.153,0.1562,0.1306,0.1041,0.0721,0.028,0.0019,-0.0003,-0.0072,-0.0042,-0.0038,-0.0036,-0.0014,-0.0065,-0.0066,-0.0067,-0.0068,0,0,0.0771,0.0851,0.0892,0.1049,0.1131,0.1271,0.1358,0.1482,0.1557,0.1614,0.1583,0.1518,0.1137,0.0807,0.0452,0.0191,0.0135,0.0138,0.0204,0.0288,0.0293,0.0038,0.0081,0,0,0,0,0]}],[{"header":{"parameterUnit":"m.s-1","parameterCategory":2,"la1":30.2991,"la2":30.254,"lo1":-89.0895,"lo2":-89.0444,"dy":0.0017,"dx":0.0017,"nx":28,"ny":28,"refTime":"2023-10-07T21:00:00:Z","depth":"4","parameterNumber":2,"parameterNumberName":"U-component_of_CURRENTS"},"data":[0,0,0,0,0,0,0,0,0,0,0,0,0,0,0,0,0,0,0,0,0,0,0,0,0,0,0,0,0,0,0,0,0,0,0,0,0,0,0,0,0,0,0,0,0,0,0,0,0,0,0,0,0,0,0,0,0,0,0.1702,0.1702,0,0.1702,0.1701,0.1701,0.171,0.1711,0.1711,0.1712,0.173,0.173,0.173,0,0,0,0,0,0,0,0,0,0,0,0,0,0.1655,0.1655,0.1701,0.1702,0.1703,0.1702,0.1701,0.1701,0.171,0.1711,0.1712,0.1712,0.1731,0.173,0.173,0,0,0,0,0,0,0,0,0,0,0,0,0,0.1661,0.1656,0.1701,0.1712,0.1713,0.1702,0.1701,0.17,0.1709,0.1711,0.1712,0.1713,0.1731,0.173,0.173,0.1703,0,0,0.1729,0.1728,0,0,0,0,0,0,0,0,0.1661,0.1662,0.171,0.1711,0.1713,0.1713,0.1692,0.1704,0.1709,0.1704,0.1712,0.1714,0.1729,0.1729,0.1717,0.1704,0.1704,0.1729,0.1728,0.1728,0.1728,0,0,0,0,0,0,0,0.166,0.1662,0.1695,0.171,0.1712,0.1698,0.17,0.1693,0.1705,0.1705,0.1707,0.1717,0.173,0.1717,0.1718,0.1705,0.1729,0.1728,0.1728,0.1728,0.1789,0.179,0,0,0,0,0,0,0.1675,0.1662,0.1695,0.1696,0.1696,0.1699,0.1701,0.1706,0.1705,0.1708,0.1716,0.1717,0.1717,0.1718,0.1719,0.1785,0.1728,0.1728,0.1727,0.1787,0.1789,0.1791,0,0,0,0,0,0,0.1674,0.1677,0.1695,0.1684,0.1686,0.17,0.1705,0.1706,0.1736,0.1714,0.1716,0.1751,0.1718,0.1719,0.1749,0.1782,0.1728,0.1727,0.1784,0.1787,0.179,0.1855,0,0,0,0,0,0,0.1672,0.1677,0.1697,0.1685,0.1688,0.172,0.1704,0.1705,0.1741,0.1744,0.1744,0.1745,0.1719,0.175,0.1749,0.1781,0.1727,0.1782,0.1786,0.1789,0.185,0.1859,0.1867,0,0,0,0,0,0.167,0.1684,0.1697,0.1703,0.1711,0.1722,0.1722,0.173,0.1742,0.176,0.1765,0.1747,0.1772,0.1751,0.1749,0.1782,0.178,0.1785,0.1789,0.1846,0.1858,0.1867,0,0,0,0,0,0,0.1669,0.1687,0.1701,0.172,0.174,0.1727,0.1746,0.1756,0.1771,0.1785,0.1763,0.1764,0.1805,0.1788,0.1766,0.1812,0.1776,0.178,0.1821,0.1831,0.1839,0.1853,0.1726,0,0,0,0,0,0.1681,0.1703,0.1717,0.1738,0.1752,0.1759,0.1772,0.1782,0.1789,0.1799,0.1804,0.1809,0.1811,0.182,0.182,0.1841,0.1841,0.1864,0.1873,0.188,0.1892,0.1919,0.193,0.1805,0.1805,0.1805,0,0,0.1688,0.1703,0.1717,0.1742,0.1755,0.1772,0.1769,0.1802,0.1824,0.1798,0.184,0.1844,0.1826,0.185,0.1867,0.1845,0.1919,0.1885,0.1891,0.19,0.1924,0.1936,0.1947,0.1808,0.1807,0.1807,0,0,0.17,0.1729,0.1748,0.1769,0.1807,0.181,0.1834,0.1854,0.1875,0.191,0.1899,0.1929,0.1936,0.1927,0.1921,0.1979,0.1966,0.1989,0.2037,0.2062,0.2073,0.2082,0.2107,0.2118,0.1989,0.1989,0.1989,0,0.1713,0.1734,0.1757,0.178,0.1803,0.1834,0.1859,0.1877,0.1909,0.1936,0.1941,0.1978,0.1968,0.1988,0.2008,0.1998,0.2014,0.1994,0.2073,0.2082,0.209,0.2113,0.2124,0.1992,0.1992,0.1992,0.1991,0,0.1725,0.1758,0.1774,0.1813,0.1841,0.1872,0.1903,0.1948,0.1986,0.2004,0.2066,0.2059,0.2084,0.2085,0.2061,0.2116,0.211,0.2082,0.2044,0.2106,0.2127,0.2138,0.1998,0.1996,0.1995,0.1994,0,0,0.171,0.1771,0.1782,0.1809,0.1866,0.1885,0.1941,0.1991,0.2037,0.2086,0.214,0.2157,0.2182,0.2178,0.2166,0.2184,0.2251,0.2167,0.2166,0.2187,0.2321,0.2179,0.2176,0.2242,0.2244,0.2246,0.2315,0,0.1717,0.1761,0.1794,0.1846,0.1871,0.1927,0.1972,0.203,0.2083,0.2144,0.2173,0.2219,0.2207,0.2232,0.2255,0.2252,0.2281,0.2235,0.2262,0.2263,0.2124,0.2183,0.2252,0.2323,0.2325,0.2327,0.2328,0,0.1711,0.1746,0.1796,0.1868,0.1887,0.1929,0.2021,0.2066,0.2155,0.2204,0.2272,0.2297,0.2352,0.2323,0.238,0.2358,0.2358,0.2349,0.2351,0.2201,0.2139,0.2246,0.2346,0.2345,0.2343,0.2342,0.2341,0,0.1672,0.1745,0.1789,0.1813,0.1897,0.1947,0.2002,0.2095,0.2146,0.2254,0.2305,0.2377,0.242,0.2444,0.2451,0.2429,0.2498,0.2456,0.2331,0.2321,0.2399,0.2388,0.2499,0.2499,0.2499,0.2498,0.2498,0,0.1644,0.1685,0.1783,0.1804,0.187,0.1941,0.2022,0.2093,0.2194,0.2249,0.234,0.2386,0.2456,0.2498,0.2491,0.2449,0.2539,0.2354,0.2331,0.2426,0.2418,0.2407,0.2395,0.2501,0.25,0.25,0.25,0,0.1584,0.1648,0.1705,0.1811,0.1851,0.1902,0.2026,0.2072,0.219,0.2265,0.2306,0.2422,0.2477,0.2523,0.256,0.2481,0.246,0.2421,0.2544,0.2525,0.2259,0.225,0.2285,0.2281,0.2277,0.2274,0.2271,0,0.155,0.1576,0.1699,0.1735,0.1789,0.1878,0.193,0.2058,0.2101,0.226,0.2273,0.2388,0.2444,0.239,0.2456,0.2447,0.2408,0.2384,0.2298,0.2264,0.2239,0.2236,0.2232,0.2265,0.2264,0.2263,0.2262,0,0.1485,0.1549,0.1595,0.1672,0.1737,0.1793,0.1877,0.1899,0.2032,0.2157,0.2184,0.2211,0.227,0.2297,0.2313,0.2297,0.2388,0.2344,0.235,0.2269,0.224,0.2218,0.2219,0.2249,0.2251,0.2252,0.2253,0,0.1446,0.1462,0.1535,0.1586,0.1659,0.1675,0.1738,0.1779,0.1839,0.2002,0.2012,0.213,0.2248,0.2221,0.2236,0.2215,0.2167,0.2071,0.2091,0.2106,0.2012,0.1947,0.1857,0,0,0,0,0,0.1394,0.1394,0.1437,0.1476,0.1541,0.1582,0.168,0.1741,0.1871,0.1834,0.1914,0.1957,0.1984,0.2053,0.1992,0.2162,0.2182,0.2082,0.2084,0.2177,0.2192,0.2096,0,0,0,0,0,0,0.1356,0.1394,0.1398,0.137,0.1375,0.1427,0.1485,0.1576,0.156,0.1702,0.1728,0.1832,0.1892,0.1995,0.1953,0.1972,0.1929,0.2161,0.2155,0.2169,0.2182,0.2194,0.2101,0,0,0,0,0]},{"header":{"parameterUnit":"m.s-1","parameterCategory":2,"la1":30.2991,"la2":30.254,"lo1":-89.0895,"lo2":-89.0444,"dy":0.0017,"dx":0.0017,"nx":28,"ny":28,"refTime":"2023-10-07T21:00:00:Z","depth":"4","parameterNumber":3,"parameterNumberName":"V-component_of_CURRENTS"},"data":[0,0,0,0,0,0,0,0,0,0,0,0,0,0,0,0,0,0,0,0,0,0,0,0,0,0,0,0,0,0,0,0,0,0,0,0,0,0,0,0,0,0,0,0,0,0,0,0,0,0,0,0,0,0,0,0,0,0,0.0258,0.0257,0,0.023,0.0229,0.0229,0.0217,0.0217,0.0217,0.0217,0.0178,0.0177,0.0176,0,0,0,0,0,0,0,0,0,0,0,0,0,0.027,0.027,0.0258,0.0257,0.0257,0.023,0.0229,0.0229,0.0217,0.0217,0.0217,0.0217,0.0178,0.0177,0.0176,0,0,0,0,0,0,0,0,0,0,0,0,0,0.0256,0.027,0.0258,0.0248,0.0247,0.023,0.0229,0.0229,0.0217,0.0217,0.0217,0.0217,0.0179,0.0177,0.0176,0.0164,0,0,0.0171,0.017,0,0,0,0,0,0,0,0,0.0257,0.0255,0.0249,0.0248,0.0247,0.0227,0.022,0.0207,0.0217,0.0228,0.0217,0.0217,0.0193,0.0191,0.0185,0.0162,0.016,0.017,0.0169,0.0169,0.0168,0,0,0,0,0,0,0,0.0258,0.0256,0.0246,0.0249,0.0248,0.0234,0.0233,0.0217,0.021,0.0227,0.0226,0.0223,0.0193,0.0187,0.0184,0.016,0.0171,0.0169,0.0168,0.0167,0.0133,0.0133,0,0,0,0,0,0,0.0263,0.0257,0.0247,0.0246,0.0252,0.0234,0.0232,0.0233,0.0211,0.0207,0.0223,0.0223,0.0189,0.0186,0.0183,0.0186,0.0169,0.0167,0.0166,0.0133,0.0133,0.0133,0,0,0,0,0,0,0.0263,0.0263,0.0248,0.0251,0.0248,0.0234,0.0235,0.0233,0.0232,0.0208,0.0204,0.0226,0.0189,0.0185,0.0174,0.0184,0.0167,0.0165,0.0133,0.0133,0.0133,0.0181,0,0,0,0,0,0,0.0264,0.0263,0.0269,0.0251,0.0248,0.0246,0.0235,0.0232,0.023,0.023,0.0209,0.0205,0.0189,0.0177,0.0173,0.0181,0.0164,0.0133,0.0133,0.0133,0.0179,0.0183,0.0185,0,0,0,0,0,0.0265,0.0272,0.0269,0.0268,0.0255,0.0246,0.0244,0.0234,0.0231,0.0233,0.0218,0.0206,0.0175,0.0175,0.0171,0.0179,0.0133,0.0133,0.0133,0.0178,0.0182,0.0185,0,0,0,0,0,0,0.0278,0.0271,0.0267,0.0272,0.0263,0.0245,0.0248,0.0239,0.0229,0.0231,0.0207,0.0202,0.0196,0.0179,0.018,0.0168,0.0152,0.0151,0.0187,0.0191,0.0194,0.0212,0.0162,0,0,0,0,0,0.0285,0.0291,0.0277,0.0282,0.028,0.0265,0.0262,0.0255,0.0242,0.0238,0.0224,0.0207,0.0191,0.0185,0.0169,0.0163,0.0139,0.0164,0.0167,0.017,0.018,0.0145,0.0146,0.0134,0.0134,0.0134,0,0,0.0291,0.0288,0.0291,0.0286,0.028,0.0284,0.0264,0.0263,0.0268,0.0235,0.0239,0.0218,0.0192,0.0186,0.0182,0.0174,0.016,0.017,0.0173,0.0182,0.0145,0.0146,0.0147,0.0134,0.0134,0.0134,0,0,0.0308,0.0306,0.0317,0.0314,0.0309,0.0302,0.0304,0.0291,0.0287,0.0282,0.0262,0.0246,0.0225,0.0209,0.0197,0.0206,0.0177,0.0201,0.0234,0.0199,0.02,0.02,0.0172,0.0169,0.0203,0.0204,0.0204,0,0.0316,0.0329,0.0318,0.0327,0.0332,0.0314,0.0327,0.0319,0.0304,0.0305,0.029,0.026,0.0236,0.0229,0.0232,0.0215,0.0193,0.0223,0.0204,0.0204,0.0203,0.0174,0.017,0.0206,0.0206,0.0205,0.0205,0,0.0338,0.0351,0.0358,0.0368,0.037,0.0379,0.0369,0.037,0.0362,0.0353,0.0344,0.0306,0.029,0.0276,0.0258,0.0249,0.0233,0.0212,0.0197,0.0208,0.0175,0.0171,0.0209,0.0208,0.0208,0.0207,0,0,0.0351,0.037,0.0375,0.0393,0.0395,0.0403,0.0411,0.0416,0.0432,0.0404,0.0413,0.0377,0.0359,0.0344,0.0314,0.0284,0.0257,0.0254,0.0251,0.0232,0.0186,0.0174,0.0168,0.0233,0.0232,0.0232,0.0164,0,0.0375,0.0408,0.0409,0.0446,0.0465,0.0458,0.0471,0.0473,0.0468,0.0471,0.0427,0.0424,0.0383,0.0379,0.0342,0.0282,0.0248,0.0278,0.0174,0.0171,0.0164,0.0164,0.0231,0.0161,0.016,0.0159,0.0159,0,0.0398,0.042,0.0461,0.0496,0.0505,0.0526,0.0555,0.0566,0.0559,0.0553,0.0535,0.0502,0.0463,0.0421,0.0323,0.0345,0.0275,0.0219,0.0215,0.0187,0.0152,0.0147,0.015,0.0151,0.0152,0.0152,0.0153,0,0.0422,0.0459,0.05,0.0511,0.0542,0.0566,0.0586,0.0596,0.0619,0.0612,0.0621,0.0563,0.054,0.0444,0.0334,0.0328,0.0219,0.019,0.0112,0.011,0.012,0.012,0.0117,0.0117,0.0117,0.0117,0.0117,0,0.0446,0.048,0.052,0.0544,0.0601,0.0609,0.0668,0.0675,0.0694,0.0728,0.0673,0.0673,0.0545,0.0467,0.0355,0.0227,0.0231,0.0122,0.0093,0.0141,0.0144,0.0117,0.0118,0.0114,0.0115,0.0116,0.0116,0,0.0464,0.0488,0.0541,0.0592,0.0617,0.066,0.0729,0.0767,0.0777,0.0817,0.0817,0.0757,0.0656,0.0521,0.0365,0.0263,0.0134,0.0085,0.0158,0.0133,0.0042,0.0046,-0.001,-0.0011,-0.0012,-0.0013,-0.0013,0,0.0475,0.0505,0.0584,0.0626,0.0656,0.0724,0.0772,0.0808,0.0851,0.0867,0.0884,0.0808,0.0747,0.0525,0.0373,0.0158,0.012,0.0048,0.0034,0.0052,0.0029,0.0034,0.0039,-0.0014,-0.0015,-0.0015,-0.0015,0,0.0497,0.0529,0.0575,0.0664,0.073,0.0804,0.0876,0.091,0.0949,0.0958,0.0939,0.0826,0.0711,0.0531,0.0368,0.021,0.0092,0.0039,0.0039,0.0025,0.0046,0.0025,0.0031,-0.0018,-0.0018,-0.0017,-0.0017,0,0.0517,0.0552,0.0619,0.0696,0.0781,0.086,0.0896,0.0942,0.0982,0.0993,0.0984,0.0857,0.0788,0.0559,0.0408,0.0253,0.0202,0.0135,0.0129,0.013,0.0185,0.0234,0.0207,0,0,0,0,0,0.0532,0.0573,0.0646,0.0733,0.0817,0.0873,0.0955,0.0983,0.1019,0.1011,0.1,0.0891,0.067,0.0579,0.0422,0.0377,0.0168,0.0185,0.0087,-0.0033,-0.003,0.0008,0,0,0,0,0,0,0.0541,0.0608,0.0643,0.0751,0.0815,0.0914,0.097,0.0996,0.0991,0.0999,0.0889,0.0838,0.0628,0.0763,0.0416,0.0371,0.0281,0.0087,0.0083,-0.0035,-0.0032,-0.003,0.0011,0,0,0,0,0]}]]